Weather reports worldwide

Advertisment
Lanzarote Airport (AWS), Spain (60040): temperature & dewpoint: 12.08.2019 02:00:00 - 18.08.2019 02:00:00 (WEST)Lanzarote Airport (AWS), Spain (60040): wind speed: 12.08.2019 02:00:00 - 18.08.2019 02:00:00 (WEST)Lanzarote Airport (AWS), Spain (60040): wind direction: 12.08.2019 02:00:00 - 18.08.2019 02:00:00 (WEST)Lanzarote Airport (AWS), Spain (60040): reduced air pressure: 12.08.2019 02:00:00 - 18.08.2019 02:00:00 (WEST)Lanzarote Airport (AWS), Spain (60040): visibility: 12.08.2019 02:00:00 - 18.08.2019 02:00:00 (WEST)
Date & Time tt [°C] td [°C] ff [km/h] ff [kn] dd ppp [hPa] vv [km]
18.08.2019 02:00:00 22,9 19,3 29 16 N 1013,2 -
18.08.2019 01:00:00 22,6 19,6 28 15 N 1013,7 30
18.08.2019 00:00:00 22,4 20,1 37 20 N 1013,1 -
17.08.2019 23:00:00 22,9 20,2 29 16 NNW 1013,0 -
17.08.2019 22:00:00 23,2 20,2 41 22 NNW 1011,8 30
17.08.2019 21:00:00 23,6 20,3 35 19 N 1011,6 -
17.08.2019 20:00:00 25,1 19,9 41 22 N 1011,1 -
17.08.2019 19:00:00 27,2 20,3 41 22 N 1010,8 30
17.08.2019 18:00:00 29,2 20,2 48 26 N 1010,7 -
17.08.2019 17:00:00 29,8 20,2 46 25 N 1010,8 -
17.08.2019 16:00:00 31,0 19,8 44 24 N 1011,2 30
17.08.2019 15:00:00 33,2 19,7 39 21 N 1011,5 -
17.08.2019 14:00:00 35,1 19,3 39 21 N 1012,1 -
17.08.2019 13:00:00 33,5 18,9 37 20 N 1012,4 30
17.08.2019 12:00:00 33,3 17,1 41 22 N 1012,4 -
17.08.2019 11:00:00 31,5 18,2 39 21 N 1012,7 -
17.08.2019 10:00:00 26,4 20,1 37 20 N 1012,3 30
17.08.2019 09:00:00 24,5 20,1 41 22 N 1011,9 -
17.08.2019 08:00:00 23,0 19,8 44 24 N 1011,2 -
17.08.2019 07:00:00 23,4 19,5 34 18 N 1011,2 20
17.08.2019 06:00:00 23,6 19,5 39 21 NNW 1010,8 -
17.08.2019 05:00:00 23,8 19,1 34 18 N 1010,8 -
17.08.2019 04:00:00 23,9 19,2 34 18 NNW 1011,2 -
17.08.2019 03:00:00 24,7 18,6 37 20 N 1011,2 -
17.08.2019 02:00:00 25,5 18,6 35 19 N 1011,6 -
17.08.2019 01:00:00 24,7 19,3 34 18 N 1012,4 20
17.08.2019 00:00:00 24,2 19,5 34 18 NNW 1012,5 -
16.08.2019 23:00:00 24,0 19,7 39 21 N 1012,1 -
16.08.2019 22:00:00 24,2 19,9 44 24 N 1011,7 20
16.08.2019 21:00:00 24,5 20,4 34 18 N 1011,5 -
16.08.2019 20:00:00 25,5 20,5 50 27 N 1010,5 -
16.08.2019 19:00:00 29,3 20,0 44 24 N 1010,6 30
16.08.2019 18:00:00 30,7 20,0 39 21 N 1011,1 -
16.08.2019 17:00:00 30,6 20,1 41 22 NNW 1010,9 -
16.08.2019 16:00:00 31,6 19,9 48 26 NNW 1010,2 30
16.08.2019 15:00:00 34,0 14,5 29 16 NNE 1011,8 -
16.08.2019 14:00:00 32,8 16,1 41 22 NNE 1011,8 -
16.08.2019 13:00:00 30,3 16,6 35 19 N 1012,8 30
16.08.2019 12:00:00 29,5 18,0 34 18 N 1013,4 -
16.08.2019 11:00:00 30,4 18,4 39 21 N 1013,2 -
16.08.2019 10:00:00 27,5 16,2 31 17 N 1013,5 25
16.08.2019 09:00:00 25,4 19,3 22 12 NNW 1013,7 -
16.08.2019 08:00:00 24,1 18,4 16 9 W 1014,0 -
16.08.2019 07:00:00 22,6 19,8 37 20 NNW 1011,6 20
16.08.2019 06:00:00 22,2 20,1 31 17 NNW 1012,6 -
16.08.2019 05:00:00 22,2 19,9 42 23 N 1012,0 -
16.08.2019 04:00:00 22,2 19,9 42 23 NNW 1012,3 -
16.08.2019 03:00:00 22,0 20,1 26 14 N 1013,3 -
16.08.2019 02:00:00 22,2 19,9 35 19 N 1013,7 -
16.08.2019 01:00:00 22,3 20,0 34 18 N 1014,5 20
16.08.2019 00:00:00 22,4 20,2 34 18 N 1014,5 -
15.08.2019 23:00:00 22,4 19,9 37 20 N 1014,8 -
15.08.2019 22:00:00 22,5 20,0 41 22 NNW 1014,7 20
15.08.2019 21:00:00 22,9 20,1 41 22 NNW 1014,1 -
15.08.2019 20:00:00 24,2 20,1 37 20 N 1013,8 -
15.08.2019 19:00:00 25,9 20,1 37 20 N 1014,0 20
15.08.2019 18:00:00 26,9 20,0 39 21 N 1014,1 -
15.08.2019 17:00:00 29,0 20,4 39 21 N 1014,2 -
15.08.2019 16:00:00 29,7 20,4 41 22 N 1014,5 20
15.08.2019 15:00:00 30,1 20,3 41 22 N 1014,9 -
15.08.2019 14:00:00 29,4 20,1 41 22 N 1015,1 -
15.08.2019 13:00:00 29,2 19,7 39 21 N 1015,3 20
15.08.2019 12:00:00 28,5 19,7 39 21 N 1016,0 -
15.08.2019 11:00:00 26,9 19,8 39 21 N 1015,8 -
15.08.2019 10:00:00 24,8 19,4 37 20 N 1015,4 15
15.08.2019 09:00:00 23,1 19,3 37 20 N 1015,3 -
15.08.2019 08:00:00 21,7 19,3 29 16 N 1015,0 -
15.08.2019 07:00:00 21,5 19,4 31 17 N 1015,1 15
15.08.2019 06:00:00 21,6 19,2 34 18 N 1015,0 -
15.08.2019 05:00:00 21,5 19,2 34 18 N 1015,1 -
15.08.2019 04:00:00 21,6 19,3 34 18 N 1015,3 -
15.08.2019 03:00:00 21,6 19,1 39 21 NNW 1015,5 -
15.08.2019 02:00:00 21,7 19,1 37 20 NNW 1016,0 -
15.08.2019 01:00:00 21,8 19,0 35 19 N 1016,1 15
15.08.2019 00:00:00 21,9 19,0 44 24 NNW 1016,2 -
14.08.2019 23:00:00 22,0 19,1 35 19 N 1016,3 -
14.08.2019 22:00:00 22,2 19,1 35 19 NNW 1016,3 15
14.08.2019 21:00:00 22,4 18,8 39 21 N 1015,7 -
14.08.2019 20:00:00 23,2 19,1 42 23 NNW 1015,0 -
14.08.2019 19:00:00 25,0 19,5 39 21 NNW 1015,2 15
14.08.2019 18:00:00 26,9 19,8 31 17 NNW 1015,9 -
14.08.2019 17:00:00 28,0 19,3 35 19 NNW 1016,1 -
14.08.2019 16:00:00 29,0 19,3 37 20 N 1016,1 17
14.08.2019 15:00:00 29,0 19,0 37 20 N 1016,3 -
14.08.2019 14:00:00 28,6 18,5 42 23 N 1016,3 -
14.08.2019 13:00:00 28,1 18,3 42 23 N 1016,6 17
14.08.2019 12:00:00 27,3 18,4 41 22 N 1017,1 -
14.08.2019 11:00:00 25,7 18,2 42 23 N 1017,0 -
14.08.2019 10:00:00 24,1 18,5 44 24 N 1016,7 17
14.08.2019 09:00:00 22,6 18,7 41 22 N 1016,2 -
14.08.2019 08:00:00 21,1 18,7 37 20 N 1016,0 -
14.08.2019 07:00:00 20,9 18,5 41 22 N 1015,3 20
14.08.2019 06:00:00 20,7 18,3 41 22 NNW 1015,3 -
14.08.2019 05:00:00 20,7 18,2 39 21 N 1015,3 -
14.08.2019 04:00:00 20,8 18,2 41 22 NNW 1015,5 -
14.08.2019 03:00:00 20,8 18,2 41 22 NNW 1015,8 -
14.08.2019 02:00:00 20,9 18,1 39 21 NNW 1016,2 -
14.08.2019 01:00:00 21,0 18,2 39 21 NNW 1016,9 20
14.08.2019 00:00:00 21,1 17,9 37 20 NNW 1017,0 -
13.08.2019 23:00:00 21,4 18,2 37 20 NNW 1017,1 -
13.08.2019 22:00:00 21,6 17,8 37 20 NNW 1016,8 20
13.08.2019 21:00:00 21,8 18,0 35 19 N 1016,3 -
13.08.2019 20:00:00 22,8 17,9 41 22 N 1015,7 -
13.08.2019 19:00:00 23,9 17,7 41 22 NNW 1015,6 20
13.08.2019 18:00:00 25,6 18,0 42 23 N 1015,7 -
13.08.2019 17:00:00 26,3 17,6 41 22 N 1016,0 -
13.08.2019 16:00:00 27,0 16,9 41 22 N 1016,7 30
13.08.2019 15:00:00 27,2 17,3 39 21 N 1017,3 -
13.08.2019 14:00:00 27,7 17,5 42 23 N 1017,5 -
13.08.2019 13:00:00 26,7 17,3 39 21 N 1017,7 30
13.08.2019 12:00:00 26,0 17,6 41 22 N 1017,6 -
13.08.2019 11:00:00 25,1 17,2 44 24 N 1017,5 -
13.08.2019 10:00:00 24,1 17,3 42 23 N 1017,2 30
13.08.2019 09:00:00 22,4 17,3 44 24 N 1016,6 -
13.08.2019 08:00:00 21,0 17,4 44 24 N 1016,5 -
13.08.2019 07:00:00 20,6 17,4 42 23 N 1016,2 20
13.08.2019 06:00:00 20,8 17,6 42 23 N 1016,2 -
13.08.2019 05:00:00 20,7 17,3 44 24 N 1015,9 -
13.08.2019 04:00:00 20,8 17,4 48 26 N 1016,3 -
13.08.2019 03:00:00 20,7 17,5 37 20 N 1016,3 -
13.08.2019 02:00:00 20,6 17,6 34 18 N 1016,8 -
13.08.2019 01:00:00 20,9 17,7 34 18 N 1017,1 15
13.08.2019 00:00:00 21,2 17,8 31 17 N 1017,6 -
12.08.2019 23:00:00 21,3 17,7 37 20 N 1017,6 -
12.08.2019 22:00:00 21,6 17,8 34 18 N 1017,3 15
12.08.2019 21:00:00 22,0 18,2 35 19 N 1016,3 -
12.08.2019 20:00:00 23,0 18,1 44 24 N 1015,7 -
12.08.2019 19:00:00 24,4 18,1 44 24 N 1015,1 15
12.08.2019 18:00:00 26,2 18,1 42 23 N 1015,2 -
12.08.2019 17:00:00 26,6 17,8 50 27 N 1015,5 -
12.08.2019 16:00:00 27,4 17,5 44 24 N 1015,7 15
12.08.2019 15:00:00 27,5 17,7 50 27 N 1015,9 -
12.08.2019 14:00:00 27,5 17,2 46 25 N 1016,6 -
12.08.2019 13:00:00 27,6 17,5 46 25 N 1017,0 15
12.08.2019 12:00:00 26,8 17,8 46 25 N 1017,0 -
12.08.2019 11:00:00 25,6 17,6 50 27 N 1016,8 -
12.08.2019 10:00:00 24,2 17,8 50 27 N 1016,4 20
12.08.2019 09:00:00 22,9 18,2 41 22 N 1016,0 -
12.08.2019 08:00:00 21,2 18,2 37 20 N 1015,4 -
12.08.2019 07:00:00 20,8 18,2 37 20 N 1015,2 20
12.08.2019 06:00:00 20,9 18,2 41 22 N 1015,0 -
12.08.2019 05:00:00 21,0 18,4 39 21 N 1015,0 -
12.08.2019 04:00:00 21,0 18,6 39 21 N 1015,1 -
12.08.2019 03:00:00 21,2 18,2 35 19 N 1015,9 -
12.08.2019 02:00:00 21,2 18,2 34 18 N 1016,5 -

tt = temperature
td = dewpoint
ff = wind speed
dd = wind direction
ppp = reduced air pressure
vv = visibility

Next stations